| time (UTC) | temp F | wind direction | speed MPH | gust MPH | rain 1hr in | rain 24hr in | rain mn in | humidity % | barometer mb |
| 20260510115817 | 68 | 89 | 3.0 | 5.0 | 0.00 | 2.12 | 0.01 | 95 | 1012.6 |
| 20260510115320 | 68 | 88 | 4.0 | 5.0 | 0.00 | 2.12 | 0.01 | 95 | 1012.6 |
| 20260510114823 | 68 | 61 | 2.0 | 5.0 | 0.00 | 2.12 | 0.01 | 95 | 1012.2 |
| 20260510114325 | 68 | 72 | 3.0 | 4.0 | 0.00 | 2.12 | 0.01 | 95 | 1012.2 |
| 20260510113829 | 68 | 105 | 3.0 | 4.0 | 0.00 | 2.12 | 0.01 | 95 | 1012.2 |
| 20260510113311 | 68 | 111 | 0.0 | 3.0 | 0.00 | 2.12 | 0.01 | 95 | 1012.0 |
| 20260510112817 | 68 | 107 | 2.0 | 4.0 | 0.00 | 2.12 | 0.01 | 95 | 1012.0 |
| 20260510112321 | 68 | 111 | 2.0 | 5.0 | 0.00 | 2.12 | 0.01 | 95 | 1012.0 |
| 20260510111809 | 68 | 93 | 2.0 | 5.0 | 0.00 | 2.12 | 0.01 | 95 | 1011.7 |
| 20260510111315 | 68 | 81 | 3.0 | 5.0 | 0.00 | 2.12 | 0.01 | 95 | 1011.7 |
| 20260510110819 | 68 | 86 | 3.0 | 4.0 | 0.00 | 2.12 | 0.01 | 95 | 1011.7 |
| 20260510110324 | 68 | 57 | 2.0 | 3.0 | 0.00 | 2.12 | 0.01 | 95 | 1011.4 |
| 20260510105846 | 68 | 76 | 1.0 | 3.0 | 0.00 | 2.12 | 0.01 | 95 | 1011.4 |
| 20260510105311 | 68 | 84 | 2.0 | 3.0 | 0.00 | 2.12 | 0.01 | 95 | 1011.4 |
| 20260510104814 | 68 | 83 | 1.0 | 3.0 | 0.00 | 2.12 | 0.01 | 95 | 1011.1 |
| 20260510104317 | 68 | 84 | 2.0 | 4.0 | 0.00 | 2.12 | 0.01 | 95 | 1011.1 |
| 20260510103820 | 68 | 97 | 1.0 | 4.0 | 0.00 | 2.12 | 0.01 | 95 | 1011.1 |
| 20260510103323 | 67 | 96 | 2.0 | 4.0 | 0.00 | 2.12 | 0.01 | 95 | 1010.8 |
| 20260510102826 | 67 | 107 | 1.0 | 4.0 | 0.00 | 2.12 | 0.01 | 95 | 1010.8 |
| 20260510102311 | 67 | 93 | 2.0 | 2.0 | 0.00 | 2.12 | 0.01 | 95 | 1010.8 |
| 20260510101819 | 67 | 115 | 1.0 | 2.0 | 0.00 | 2.12 | 0.01 | 95 | 1010.7 |
| 20260510101323 | 67 | 107 | 1.0 | 2.0 | 0.00 | 2.12 | 0.01 | 95 | 1010.7 |
| 20260510100827 | 67 | 100 | 1.0 | 2.0 | 0.00 | 2.12 | 0.01 | 95 | 1010.7 |
| 20260510100309 | 67 | 90 | 0.0 | 2.0 | 0.00 | 2.12 | 0.01 | 95 | 1010.7 |
| 20260510095812 | 67 | 90 | 0.0 | 2.0 | 0.00 | 2.12 | 0.01 | 95 | 1010.7 |
| 20260510095338 | 67 | 90 | 0.0 | 2.0 | 0.00 | 2.12 | 0.01 | 95 | 1010.7 |
| 20260510094820 | 67 | 90 | 1.0 | 3.0 | 0.00 | 2.12 | 0.01 | 95 | 1010.7 |
| 20260510094346 | 67 | 71 | 0.0 | 3.0 | 0.00 | 2.12 | 0.01 | 95 | 1010.7 |
| 20260510093828 | 66 | 34 | 1.0 | 3.0 | 0.00 | 2.12 | 0.01 | 95 | 1010.6 |
| 20260510093331 | 66 | 54 | 1.0 | 2.0 | 0.00 | 2.12 | 0.01 | 94 | 1010.6 |
| 20260510092834 | 66 | 71 | 0.0 | 2.0 | 0.00 | 2.12 | 0.01 | 94 | 1010.6 |
| 20260510092339 | 66 | 71 | 0.0 | 0.0 | 0.00 | 2.12 | 0.01 | 94 | 1010.6 |
| 20260510091821 | 66 | 71 | 0.0 | 0.0 | 0.00 | 2.12 | 0.01 | 94 | 1010.5 |
| 20260510091347 | 67 | 71 | 0.0 | 2.0 | 0.00 | 2.12 | 0.01 | 94 | 1010.5 |
| 20260510090809 | 67 | 71 | 0.0 | 2.0 | 0.00 | 2.12 | 0.01 | 94 | 1010.5 |
| 20260510090313 | 67 | 71 | 0.0 | 2.0 | 0.00 | 2.12 | 0.01 | 94 | 1010.5 |
| 20260510085822 | 67 | 71 | 0.0 | 2.0 | 0.00 | 2.12 | 0.01 | 94 | 1010.5 |
| 20260510085324 | 67 | 71 | 0.0 | 2.0 | 0.00 | 2.12 | 0.01 | 94 | 1010.5 |
| 20260510084828 | 67 | 71 | 0.0 | 2.0 | 0.00 | 2.12 | 0.01 | 94 | 1010.5 |
| 20260510084331 | 67 | 54 | 0.0 | 2.0 | 0.00 | 2.12 | 0.01 | 94 | 1010.5 |
| 20260510083816 | 67 | 37 | 0.0 | 2.0 | 0.00 | 2.12 | 0.01 | 94 | 1010.5 |
| 20260510083320 | 67 | 37 | 0.0 | 2.0 | 0.00 | 2.12 | 0.01 | 94 | 1010.5 |
| 20260510082823 | 67 | 38 | 1.0 | 2.0 | 0.00 | 2.12 | 0.01 | 94 | 1010.5 |
| 20260510082346 | 67 | 69 | 0.0 | 2.0 | 0.00 | 2.12 | 0.01 | 94 | 1010.5 |
| 20260510081828 | 67 | 39 | 1.0 | 2.0 | 0.00 | 2.12 | 0.01 | 94 | 1010.1 |
| 20260510081330 | 67 | 47 | 0.0 | 2.0 | 0.00 | 2.12 | 0.01 | 94 | 1010.1 |
| 20260510080812 | 67 | 65 | 0.0 | 3.0 | 0.00 | 2.12 | 0.01 | 94 | 1010.1 |
| 20260510080336 | 67 | 57 | 1.0 | 2.0 | 0.01 | 2.12 | 0.01 | 94 | 1010.1 |
| 20260510075818 | 67 | 40 | 1.0 | 2.0 | 0.01 | 2.12 | 0.01 | 94 | 1010.1 |
| 20260510075322 | 67 | 47 | 1.0 | 2.0 | 0.01 | 2.12 | 0.01 | 94 | 1010.1 |
| 20260510074845 | 67 | 58 | 0.0 | 2.0 | 0.01 | 2.12 | 0.01 | 94 | 1010.0 |
| 20260510074310 | 67 | 58 | 0.0 | 2.0 | 0.01 | 2.12 | 0.01 | 94 | 1010.0 |
| 20260510073813 | 67 | 59 | 1.0 | 2.0 | 0.01 | 2.12 | 0.01 | 94 | 1010.0 |
| 20260510073317 | 67 | 65 | 1.0 | 2.0 | 0.01 | 2.12 | 0.01 | 94 | 1009.9 |
| 20260510072820 | 67 | 66 | 0.0 | 2.0 | 0.01 | 2.12 | 0.01 | 94 | 1009.9 |
| 20260510072323 | 67 | 66 | 0.0 | 2.0 | 0.01 | 2.12 | 0.01 | 94 | 1009.9 |
| 20260510071846 | 67 | 66 | 0.0 | 2.0 | 0.01 | 2.12 | 0.01 | 94 | 1009.8 |
| 20260510071310 | 68 | 66 | 0.0 | 2.0 | 0.01 | 2.12 | 0.01 | 94 | 1009.8 |
| 20260510070813 | 68 | 66 | 0.0 | 3.0 | 0.01 | 2.12 | 0.01 | 94 | 1009.8 |
| 20260510070317 | 68 | 47 | 1.0 | 3.0 | 0.00 | 2.11 | 0.00 | 94 | 1009.9 |
| 20260510065821 | 68 | 52 | 1.0 | 4.0 | 0.00 | 2.11 | 0.00 | 94 | 1009.9 |
| 20260510065325 | 68 | 25 | 2.0 | 4.0 | 0.00 | 2.11 | 0.00 | 94 | 1009.9 |
| 20260510064829 | 68 | 18 | 2.0 | 3.0 | 0.00 | 2.11 | 0.00 | 94 | 1009.9 |
| 20260510064315 | 68 | 54 | 1.0 | 2.0 | 0.00 | 2.11 | 0.00 | 94 | 1009.9 |
| 20260510063819 | 68 | 67 | 0.0 | 2.0 | 0.00 | 2.11 | 0.00 | 94 | 1009.9 |
| 20260510063321 | 68 | 61 | 1.0 | 2.0 | 0.00 | 2.11 | 0.00 | 94 | 1010.1 |
| 20260510062824 | 68 | 87 | 1.0 | 2.0 | 0.00 | 2.11 | 0.00 | 94 | 1010.1 |
| 20260510062310 | 68 | 51 | 1.0 | 3.0 | 0.00 | 2.11 | 0.00 | 94 | 1010.1 |
| 20260510061813 | 68 | 44 | 1.0 | 2.0 | 0.00 | 2.11 | 0.00 | 94 | 1009.9 |
| 20260510061320 | 68 | 55 | 1.0 | 2.0 | 0.00 | 2.11 | 0.00 | 94 | 1009.9 |
| 20260510060823 | 68 | 54 | 1.0 | 2.0 | 0.00 | 2.11 | 0.00 | 94 | 1009.9 |
| 20260510060347 | 68 | 52 | 0.0 | 2.0 | 0.00 | 2.11 | 0.00 | 94 | 1010.1 |
| 20260510055829 | 69 | 48 | 1.0 | 2.0 | 0.00 | 2.11 | 0.00 | 93 | 1010.1 |
| 20260510055311 | 69 | 57 | 1.0 | 2.0 | 0.00 | 2.11 | 0.00 | 94 | 1010.1 |
| 20260510054814 | 69 | 57 | 0.0 | 2.0 | 0.00 | 2.11 | 0.00 | 94 | 1009.9 |
| 20260510054325 | 69 | 57 | 0.0 | 2.0 | 0.00 | 2.11 | 0.00 | 94 | 1009.9 |
| 20260510053848 | 69 | 61 | 1.0 | 2.0 | 0.00 | 2.11 | 0.00 | 94 | 1009.9 |
| 20260510053330 | 69 | 38 | 1.0 | 2.0 | 0.00 | 2.11 | 0.00 | 94 | 1009.5 |
| 20260510052812 | 69 | 46 | 1.0 | 2.0 | 0.00 | 2.11 | 0.00 | 94 | 1009.5 |
| 20260510052316 | 69 | 93 | 1.0 | 2.0 | 0.00 | 2.11 | 0.00 | 94 | 1009.5 |
| 20260510051819 | 69 | 115 | 1.0 | 2.0 | 0.00 | 2.11 | 0.00 | 94 | 1009.6 |
| 20260510051342 | 69 | 124 | 0.0 | 2.0 | 0.00 | 2.11 | 0.00 | 94 | 1009.6 |
| 20260510050824 | 69 | 151 | 0.0 | 2.0 | 0.00 | 2.11 | 0.00 | 94 | 1009.6 |
| 20260510050327 | 69 | 151 | 0.0 | 2.0 | 0.00 | 2.11 | 2.11 | 94 | 1009.9 |
| 20260510045810 | 69 | 140 | 0.0 | 2.0 | 0.00 | 2.11 | 2.11 | 94 | 1009.9 |
| 20260510045313 | 69 | 148 | 0.0 | 2.0 | 0.00 | 2.11 | 2.11 | 94 | 1009.9 |
| 20260510044817 | 70 | 131 | 0.0 | 2.0 | 0.00 | 2.11 | 2.11 | 94 | 1010.0 |
| 20260510044320 | 70 | 131 | 1.0 | 2.0 | 0.00 | 2.11 | 2.11 | 94 | 1010.0 |
| 20260510043824 | 69 | 151 | 0.0 | 2.0 | 0.00 | 2.11 | 2.11 | 94 | 1010.0 |
| 20260510043311 | 69 | 159 | 0.0 | 1.0 | 0.00 | 2.11 | 2.11 | 94 | 1009.9 |
| 20260510042814 | 69 | 159 | 0.0 | 2.0 | 0.00 | 2.11 | 2.11 | 94 | 1009.9 |
| 20260510042317 | 69 | 159 | 0.0 | 2.0 | 0.00 | 2.11 | 2.11 | 94 | 1009.9 |
| 20260510041819 | 69 | 161 | 0.0 | 2.0 | 0.00 | 2.11 | 2.11 | 94 | 1010.0 |
| 20260510041343 | 69 | 161 | 1.0 | 2.0 | 0.00 | 2.11 | 2.11 | 94 | 1010.0 |
| 20260510040824 | 69 | 155 | 1.0 | 2.0 | 0.00 | 2.11 | 2.11 | 94 | 1010.0 |
| 20260510040327 | 69 | 154 | 0.0 | 2.0 | 0.00 | 2.11 | 2.11 | 94 | 1010.3 |
| 20260510035810 | 69 | 273 | 0.0 | 2.0 | 0.00 | 2.11 | 2.11 | 94 | 1010.3 |
| 20260510035313 | 69 | 162 | 1.0 | 2.0 | 0.00 | 2.11 | 2.11 | 95 | 1010.3 |
| 20260510034820 | 69 | 163 | 1.0 | 2.0 | 0.00 | 2.11 | 2.11 | 94 | 1010.9 |
| 20260510034324 | 69 | 152 | 0.0 | 2.0 | 0.00 | 2.11 | 2.11 | 94 | 1010.9 |
| 20260510033813 | 69 | 152 | 0.0 | 2.0 | 0.00 | 2.11 | 2.11 | 94 | 1010.9 |
| 20260510033316 | 69 | 152 | 0.0 | 1.0 | 0.00 | 2.11 | 2.11 | 94 | 1011.2 |
| 20260510032819 | 69 | 152 | 0.0 | 0.0 | 0.00 | 2.11 | 2.11 | 94 | 1011.2 |
| 20260510032322 | 69 | 152 | 0.0 | 0.0 | 0.00 | 2.11 | 2.11 | 94 | 1011.2 |
| 20260510031826 | 69 | 152 | 0.0 | 0.0 | 0.00 | 2.11 | 2.11 | 94 | 1011.2 |
| 20260510031329 | 69 | 152 | 0.0 | 0.0 | 0.00 | 2.11 | 2.11 | 94 | 1011.2 |
| 20260510030811 | 69 | 152 | 0.0 | 0.0 | 0.00 | 2.11 | 2.11 | 94 | 1011.2 |
| 20260510030314 | 69 | 152 | 0.0 | 1.0 | 0.00 | 2.11 | 2.11 | 94 | 1011.1 |
| 20260510025817 | 69 | 152 | 0.0 | 1.0 | 0.00 | 2.11 | 2.11 | 94 | 1011.1 |
| 20260510025320 | 69 | 152 | 0.0 | 0.0 | 0.00 | 2.11 | 2.11 | 94 | 1011.1 |
| 20260510024823 | 69 | 152 | 0.0 | 0.0 | 0.00 | 2.11 | 2.11 | 94 | 1011.0 |
| 20260510024310 | 69 | 152 | 0.0 | 0.0 | 0.00 | 2.11 | 2.11 | 94 | 1011.0 |
| 20260510023815 | 69 | 152 | 0.0 | 0.0 | 0.00 | 2.11 | 2.11 | 94 | 1011.0 |
| 20260510023317 | 69 | 152 | 0.0 | 0.0 | 0.00 | 2.11 | 2.11 | 94 | 1010.8 |
| 20260510022822 | 69 | 152 | 0.0 | 0.0 | 0.00 | 2.11 | 2.11 | 94 | 1010.8 |
| 20260510022324 | 69 | 152 | 0.0 | 0.0 | 0.00 | 2.11 | 2.11 | 94 | 1010.8 |
| 20260510021810 | 69 | 152 | 0.0 | 0.0 | 0.00 | 2.11 | 2.11 | 94 | 1010.5 |
| 20260510021313 | 69 | 152 | 0.0 | 0.0 | 0.00 | 2.11 | 2.11 | 94 | 1010.5 |
| 20260510020819 | 69 | 152 | 0.0 | 0.0 | 0.00 | 2.11 | 2.11 | 94 | 1010.5 |
| 20260510020322 | 69 | 152 | 0.0 | 2.0 | 0.00 | 2.11 | 2.11 | 94 | 1010.3 |
| 20260510015825 | 69 | 152 | 0.0 | 2.0 | 0.00 | 2.11 | 2.11 | 94 | 1010.3 |
| 20260510015328 | 69 | 152 | 0.0 | 2.0 | 0.00 | 2.11 | 2.11 | 94 | 1010.3 |
| 20260510014814 | 69 | 152 | 0.0 | 2.0 | 0.00 | 2.11 | 2.11 | 94 | 1010.4 |
| 20260510014317 | 69 | 152 | 0.0 | 2.0 | 0.00 | 2.11 | 2.11 | 94 | 1010.4 |
| 20260510013821 | 69 | 152 | 0.0 | 2.0 | 0.00 | 2.11 | 2.11 | 94 | 1010.4 |
| 20260510013325 | 69 | 138 | 0.0 | 2.0 | 0.00 | 2.11 | 2.11 | 94 | 1010.0 |
| 20260510012829 | 69 | 141 | 0.0 | 2.0 | 0.00 | 2.11 | 2.11 | 94 | 1010.0 |
| 20260510012311 | 69 | 125 | 1.0 | 2.0 | 0.00 | 2.11 | 2.11 | 94 | 1010.0 |
| 20260510011817 | 69 | 131 | 1.0 | 2.0 | 0.01 | 2.11 | 2.11 | 94 | 1009.9 |
| 20260510011320 | 69 | 159 | 1.0 | 2.0 | 0.01 | 2.11 | 2.11 | 94 | 1009.9 |
| 20260510010824 | 69 | 153 | 1.0 | 2.0 | 0.01 | 2.11 | 2.11 | 94 | 1009.9 |
| 20260510010328 | 69 | 146 | 0.0 | 2.0 | 0.01 | 2.11 | 2.11 | 94 | 1009.8 |
| 20260510005831 | 69 | 154 | 0.0 | 2.0 | 0.01 | 2.11 | 2.11 | 94 | 1009.8 |
| 20260510005312 | 69 | 155 | 0.0 | 2.0 | 0.01 | 2.11 | 2.11 | 94 | 1009.8 |
| 20260510004819 | 69 | 143 | 1.0 | 2.0 | 0.01 | 2.11 | 2.11 | 94 | 1009.9 |
| 20260510004323 | 69 | 138 | 0.0 | 2.0 | 0.02 | 2.11 | 2.11 | 94 | 1009.9 |
| 20260510003846 | 69 | 157 | 0.0 | 2.0 | 0.02 | 2.11 | 2.11 | 94 | 1009.9 |
| 20260510003309 | 69 | 167 | 0.0 | 3.0 | 0.02 | 2.11 | 2.11 | 94 | 1009.7 |
| 20260510002813 | 69 | 147 | 0.0 | 3.0 | 0.02 | 2.11 | 2.11 | 94 | 1009.7 |
| 20260510002336 | 69 | 156 | 1.0 | 3.0 | 0.02 | 2.11 | 2.11 | 94 | 1009.7 |
| 20260510001817 | 69 | 156 | 0.0 | 2.0 | 0.01 | 2.10 | 2.10 | 94 | 1009.8 |
| 20260510001321 | 69 | 148 | 0.0 | 2.0 | 0.01 | 2.10 | 2.10 | 94 | 1009.8 |
| 20260510000824 | 69 | 141 | 1.0 | 2.0 | 0.02 | 2.10 | 2.10 | 94 | 1009.8 |
| 20260510000328 | 69 | 161 | 1.0 | 2.0 | 0.03 | 2.10 | 2.10 | 94 | 1009.7 |
| 20260509235811 | 69 | 161 | 0.0 | 2.0 | 0.04 | 2.10 | 2.10 | 94 | 1009.7 |
| 20260509235314 | 69 | 157 | 0.0 | 2.0 | 0.05 | 2.10 | 2.10 | 94 | 1009.7 |
| 20260509234817 | 69 | 147 | 0.0 | 2.0 | 0.06 | 2.10 | 2.10 | 94 | 1009.9 |
| 20260509234324 | 69 | 163 | 1.0 | 2.0 | 0.06 | 2.09 | 2.09 | 94 | 1009.9 |
| 20260509233827 | 69 | 141 | 0.0 | 2.0 | 0.06 | 2.09 | 2.09 | 94 | 1009.9 |
| 20260509233309 | 69 | 178 | 1.0 | 2.0 | 0.06 | 2.09 | 2.09 | 94 | 1009.8 |
| 20260509232813 | 70 | 204 | 0.0 | 2.0 | 0.06 | 2.09 | 2.09 | 94 | 1009.8 |
| 20260509232317 | 70 | 205 | 0.0 | 2.0 | 0.06 | 2.09 | 2.09 | 94 | 1009.8 |
| 20260509231821 | 69 | 120 | 0.0 | 2.0 | 0.06 | 2.09 | 2.09 | 94 | 1009.9 |
| 20260509231345 | 69 | 110 | 1.0 | 2.0 | 0.06 | 2.09 | 2.09 | 94 | 1009.9 |
| 20260509230806 | 69 | 115 | 1.0 | 2.0 | 0.05 | 2.08 | 2.08 | 94 | 1009.9 |
| 20260509230312 | 69 | 145 | 0.0 | 2.0 | 0.04 | 2.07 | 2.07 | 94 | 1009.9 |
| 20260509225818 | 69 | 145 | 0.0 | 2.0 | 0.04 | 2.06 | 2.06 | 94 | 1009.9 |
| 20260509225321 | 69 | 145 | 0.0 | 2.0 | 0.03 | 2.05 | 2.05 | 94 | 1009.9 |
| 20260509224824 | 69 | 144 | 0.0 | 2.0 | 0.02 | 2.04 | 2.04 | 94 | 1009.6 |
| 20260509224330 | 69 | 127 | 0.0 | 2.0 | 0.01 | 2.03 | 2.03 | 93 | 1009.6 |
| 20260509223813 | 69 | 148 | 0.0 | 2.0 | 0.02 | 2.03 | 2.03 | 93 | 1009.6 |
| 20260509223339 | 69 | 196 | 0.0 | 2.0 | 0.02 | 2.03 | 2.03 | 93 | 1009.6 |
| 20260509222821 | 69 | 202 | 0.0 | 2.0 | 0.03 | 2.08 | 2.03 | 93 | 1009.6 |
| 20260509222326 | 69 | 213 | 0.0 | 2.0 | 0.04 | 2.08 | 2.03 | 93 | 1009.6 |
| 20260509221809 | 69 | 144 | 0.0 | 2.0 | 0.04 | 2.08 | 2.03 | 93 | 1009.2 |
| 20260509221332 | 69 | 144 | 0.0 | 2.0 | 0.04 | 2.08 | 2.03 | 93 | 1009.2 |
| 20260509220814 | 69 | 113 | 0.0 | 2.0 | 0.04 | 2.08 | 2.03 | 93 | 1009.2 |
| 20260509220341 | 69 | 90 | 1.0 | 2.0 | 0.04 | 2.08 | 2.03 | 93 | 1009.2 |
| 20260509215823 | 69 | 338 | 0.0 | 2.0 | 0.04 | 2.08 | 2.03 | 93 | 1009.2 |
| 20260509215327 | 69 | 337 | 0.0 | 2.0 | 0.03 | 2.07 | 2.02 | 93 | 1009.2 |
| 20260509214811 | 69 | 263 | 0.0 | 1.0 | 0.03 | 2.07 | 2.02 | 93 | 1009.5 |
| 20260509214314 | 69 | 263 | 0.0 | 1.0 | 0.03 | 2.07 | 2.02 | 93 | 1009.5 |
| 20260509213837 | 69 | 155 | 0.0 | 0.0 | 0.03 | 2.07 | 2.02 | 93 | 1009.5 |
| 20260509213320 | 69 | 155 | 0.0 | 2.0 | 0.02 | 2.06 | 2.01 | 93 | 1009.6 |
| 20260509212827 | 69 | 155 | 0.0 | 2.0 | 0.01 | 2.79 | 2.00 | 93 | 1009.6 |
| 20260509212309 | 69 | 155 | 0.0 | 1.0 | 0.00 | 2.78 | 1.99 | 93 | 1009.6 |
| 20260509211813 | 69 | 155 | 0.0 | 2.0 | 0.00 | 2.78 | 1.99 | 93 | 1009.1 |
| 20260509211317 | 68 | 138 | 1.0 | 3.0 | 0.00 | 2.78 | 1.99 | 93 | 1009.1 |
| 20260509210821 | 69 | 134 | 0.0 | 4.0 | 0.00 | 2.78 | 1.99 | 93 | 1009.1 |
| 20260509210328 | 69 | 119 | 1.0 | 4.0 | 0.00 | 2.78 | 1.99 | 93 | 1008.9 |
| 20260509205811 | 69 | 121 | 1.0 | 6.0 | 0.00 | 2.78 | 1.99 | 93 | 1008.9 |
| 20260509205313 | 69 | 131 | 2.0 | 6.0 | 0.00 | 2.78 | 1.99 | 93 | 1008.9 |
| 20260509204816 | 69 | 161 | 1.0 | 7.0 | 0.01 | 2.78 | 1.99 | 93 | 1009.0 |
| 20260509204340 | 69 | 155 | 3.0 | 7.0 | 0.01 | 2.78 | 1.99 | 93 | 1009.0 |
| 20260509203822 | 69 | 119 | 4.0 | 7.0 | 0.01 | 2.78 | 1.99 | 93 | 1009.0 |
| 20260509203309 | 69 | 103 | 3.0 | 7.0 | 0.02 | 2.78 | 1.99 | 94 | 1009.1 |
| 20260509202812 | 69 | 115 | 2.0 | 5.0 | 0.03 | 3.35 | 1.99 | 94 | 1009.1 |
| 20260509202318 | 69 | 136 | 1.0 | 5.0 | 0.04 | 3.35 | 1.99 | 94 | 1009.1 |
| 20260509201822 | 68 | 103 | 2.0 | 6.0 | 0.04 | 3.35 | 1.99 | 94 | 1009.6 |
| 20260509201346 | 68 | 116 | 4.0 | 6.0 | 0.05 | 3.35 | 1.99 | 94 | 1009.6 |
| 20260509200849 | 68 | 128 | 2.0 | 5.0 | 0.05 | 3.35 | 1.99 | 94 | 1009.6 |
| 20260509200310 | 68 | 138 | 4.0 | 5.0 | 0.06 | 3.35 | 1.99 | 94 | 1010.3 |
| 20260509195813 | 68 | 116 | 0.0 | 2.0 | 0.06 | 3.35 | 1.99 | 94 | 1010.3 |
| 20260509195336 | 68 | 109 | 0.0 | 2.0 | 0.07 | 3.35 | 1.99 | 94 | 1010.3 |
| 20260509194818 | 68 | 132 | 0.0 | 2.0 | 0.07 | 3.34 | 1.98 | 94 | 1010.2 |
| 20260509194322 | 68 | 119 | 0.0 | 2.0 | 0.07 | 3.34 | 1.98 | 94 | 1010.2 |
| 20260509193825 | 67 | 119 | 0.0 | 3.0 | 0.08 | 3.34 | 1.98 | 94 | 1010.2 |
| 20260509193310 | 67 | 117 | 2.0 | 3.0 | 0.08 | 3.33 | 1.97 | 94 | 1010.4 |
| 20260509192833 | 67 | 135 | 0.0 | 2.0 | 0.09 | 3.32 | 1.96 | 94 | 1010.4 |
| 20260509192315 | 67 | 134 | 1.0 | 3.0 | 0.09 | 3.31 | 1.95 | 94 | 1010.4 |
| 20260509191825 | 67 | 119 | 1.0 | 3.0 | 0.12 | 3.31 | 1.95 | 94 | 1010.8 |
| 20260509191349 | 67 | 117 | 1.0 | 2.0 | 0.17 | 3.30 | 1.94 | 94 | 1010.8 |
| 20260509190811 | 67 | 107 | 1.0 | 2.0 | 0.21 | 3.30 | 1.94 | 94 | 1010.8 |
| 20260509190315 | 67 | 148 | 0.0 | 1.0 | 0.20 | 3.29 | 1.93 | 94 | 1011.1 |
| 20260509185818 | 67 | 148 | 0.0 | 2.0 | 0.21 | 3.29 | 1.93 | 94 | 1011.1 |
| 20260509185322 | 67 | 148 | 0.0 | 2.0 | 0.21 | 3.28 | 1.92 | 94 | 1011.1 |
| 20260509184825 | 67 | 148 | 0.0 | 3.0 | 0.20 | 3.27 | 1.91 | 94 | 1010.2 |
| 20260509184328 | 67 | 145 | 1.0 | 3.0 | 0.21 | 3.27 | 1.91 | 94 | 1010.2 |
| 20260509183811 | 67 | 163 | 1.0 | 4.0 | 0.21 | 3.26 | 1.90 | 94 | 1010.2 |
| 20260509183314 | 67 | 131 | 2.0 | 4.0 | 0.21 | 3.25 | 1.89 | 94 | 1010.1 |
| 20260509182816 | 67 | 167 | 0.0 | 5.0 | 0.19 | 3.23 | 1.87 | 94 | 1010.1 |
| 20260509182320 | 67 | 140 | 1.0 | 5.0 | 0.19 | 3.22 | 1.86 | 94 | 1010.1 |
| 20260509181845 | 67 | 115 | 3.0 | 4.0 | 0.21 | 3.19 | 1.83 | 94 | 1011.3 |
| 20260509181311 | 67 | 93 | 0.0 | 2.0 | 0.24 | 3.13 | 1.77 | 94 | 1011.3 |
| 20260509180815 | 67 | 175 | 0.0 | 2.0 | 0.29 | 3.09 | 1.73 | 94 | 1011.3 |
| 20260509180319 | 67 | 155 | 1.0 | 3.0 | 0.32 | 3.09 | 1.73 | 94 | 1010.4 |
| 20260509175823 | 67 | 115 | 1.0 | 7.0 | 0.33 | 3.08 | 1.72 | 94 | 1010.4 |
| 20260509175347 | 66 | 104 | 2.0 | 7.0 | 0.36 | 3.07 | 1.71 | 94 | 1010.4 |
| 20260509174849 | 66 | 111 | 4.0 | 7.0 | 0.44 | 3.07 | 1.71 | 94 | 1010.3 |
| 20260509174311 | 66 | 157 | 1.0 | 7.0 | 0.55 | 3.06 | 1.70 | 94 | 1010.3 |
| 20260509173814 | 66 | 113 | 4.0 | 9.0 | 0.60 | 3.05 | 1.69 | 94 | 1010.3 |
| 20260509173321 | 66 | 96 | 3.0 | 7.0 | 0.62 | 3.04 | 1.68 | 94 | 1010.9 |
| 20260509172824 | 66 | 101 | 3.0 | 7.0 | 0.68 | 3.04 | 1.68 | 94 | 1010.9 |
| 20260509172307 | 66 | 62 | 4.0 | 7.0 | 0.73 | 3.03 | 1.67 | 94 | 1010.9 |
| 20260509171832 | 66 | 126 | 2.0 | 7.0 | 0.75 | 3.00 | 1.64 | 94 | 1011.5 |
| 20260509171317 | 66 | 102 | 1.0 | 7.0 | 0.69 | 2.89 | 1.53 | 93 | 1011.5 |
| 20260509170825 | 66 | 131 | 3.0 | 7.0 | 0.61 | 2.80 | 1.44 | 93 | 1011.5 |
| 20260509170311 | 66 | 71 | 3.0 | 9.0 | 0.59 | 2.77 | 1.41 | 93 | 1011.2 |
| 20260509165814 | 66 | 70 | 4.0 | 9.0 | 0.58 | 2.75 | 1.39 | 93 | 1011.2 |
| 20260509165338 | 66 | 73 | 3.0 | 10.0 | 0.58 | 2.71 | 1.35 | 93 | 1011.2 |
| 20260509164841 | 66 | 121 | 3.0 | 10.0 | 0.57 | 2.63 | 1.27 | 93 | 1011.5 |
| 20260509164324 | 67 | 48 | 4.0 | 11.0 | 0.48 | 2.52 | 1.16 | 93 | 1011.5 |
| 20260509163827 | 67 | 97 | 5.0 | 11.0 | 0.45 | 2.45 | 1.09 | 93 | 1011.5 |
| 20260509163310 | 67 | 92 | 2.0 | 6.0 | 0.47 | 2.42 | 1.06 | 93 | 1011.3 |
| 20260509162814 | 67 | 134 | 3.0 | 10.0 | 0.45 | 2.37 | 1.01 | 93 | 1011.3 |
| 20260509162320 | 67 | 147 | 4.0 | 10.0 | 0.44 | 2.31 | 0.95 | 93 | 1011.3 |
| 20260509161823 | 67 | 71 | 5.0 | 10.0 | 0.42 | 2.25 | 0.89 | 93 | 1011.2 |
| 20260509161346 | 67 | 84 | 7.0 | 10.0 | 0.38 | 2.20 | 0.84 | 93 | 1011.2 |
| 20260509160810 | 67 | 84 | 5.0 | 9.0 | 0.37 | 2.19 | 0.83 | 93 | 1011.2 |
| 20260509160317 | 67 | 82 | 4.0 | 11.0 | 0.36 | 2.18 | 0.82 | 93 | 1011.3 |
| 20260509155824 | 67 | 109 | 6.0 | 11.0 | 0.35 | 2.17 | 0.81 | 93 | 1011.3 |
| 20260509155308 | 67 | 101 | 5.0 | 9.0 | 0.31 | 2.13 | 0.77 | 93 | 1011.3 |
| 20260509154814 | 67 | 114 | 5.0 | 9.0 | 0.25 | 2.07 | 0.71 | 93 | 1011.3 |
| 20260509154321 | 68 | 79 | 3.0 | 11.0 | 0.22 | 2.04 | 0.68 | 92 | 1011.3 |
| 20260509153824 | 68 | 77 | 6.0 | 11.0 | 0.19 | 2.01 | 0.65 | 92 | 1011.3 |
| 20260509153350 | 68 | 75 | 2.0 | 10.0 | 0.14 | 1.96 | 0.60 | 92 | 1010.9 |
| 20260509152831 | 68 | 59 | 4.0 | 12.0 | 0.10 | 1.92 | 0.56 | 92 | 1010.9 |
| 20260509152313 | 68 | 62 | 3.0 | 12.0 | 0.06 | 1.88 | 0.52 | 92 | 1010.9 |
| 20260509151816 | 68 | 92 | 5.0 | 11.0 | 0.01 | 1.83 | 0.47 | 92 | 1010.9 |
| 20260509151319 | 68 | 73 | 3.0 | 11.0 | 0.00 | 1.82 | 0.46 | 92 | 1010.9 |
| 20260509150822 | 68 | 93 | 4.0 | 11.0 | 0.00 | 1.82 | 0.46 | 92 | 1010.9 |
| 20260509150325 | 68 | 58 | 6.0 | 15.0 | 0.01 | 1.82 | 0.46 | 92 | 1010.4 |
| 20260509145811 | 68 | 24 | 6.0 | 15.0 | 0.01 | 1.82 | 0.46 | 92 | 1010.4 |
| 20260509145314 | 68 | 83 | 7.0 | 13.0 | 0.02 | 1.82 | 0.46 | 92 | 1010.4 |
| 20260509144818 | 68 | 64 | 9.0 | 13.0 | 0.03 | 1.82 | 0.46 | 92 | 1010.7 |
| 20260509144322 | 68 | 61 | 3.0 | 12.0 | 0.08 | 1.82 | 0.46 | 92 | 1010.7 |
| 20260509143826 | 68 | 98 | 5.0 | 12.0 | 0.15 | 1.82 | 0.46 | 93 | 1010.7 |
| 20260509143311 | 68 | 80 | 6.0 | 12.0 | 0.22 | 1.82 | 0.46 | 93 | 1010.7 |
| 20260509142814 | 68 | 85 | 8.0 | 12.0 | 0.31 | 1.82 | 0.46 | 93 | 1010.7 |
| 20260509142317 | 67 | 38 | 5.0 | 11.0 | 0.39 | 1.82 | 0.46 | 93 | 1010.7 |
| 20260509141821 | 67 | 44 | 4.0 | 8.0 | 0.41 | 1.82 | 0.46 | 93 | 1010.8 |
| 20260509141328 | 67 | 94 | 5.0 | 7.0 | 0.43 | 1.82 | 0.46 | 93 | 1010.8 |
| 20260509140811 | 67 | 61 | 3.0 | 5.0 | 0.46 | 1.82 | 0.46 | 93 | 1010.8 |
| 20260509140317 | 67 | 43 | 2.0 | 6.0 | 0.45 | 1.81 | 0.45 | 93 | 1011.2 |
| 20260509135843 | 67 | 76 | 2.0 | 6.0 | 0.45 | 1.81 | 0.45 | 92 | 1011.2 |
| 20260509135325 | 66 | 61 | 2.0 | 6.0 | 0.44 | 1.80 | 0.44 | 92 | 1011.2 |
| 20260509134828 | 66 | 15 | 3.0 | 7.0 | 0.43 | 1.79 | 0.43 | 92 | 1011.3 |
| 20260509134312 | 66 | 360 | 3.0 | 7.0 | 0.39 | 1.75 | 0.39 | 91 | 1011.3 |
| 20260509133815 | 67 | 263 | 4.0 | 12.0 | 0.31 | 1.67 | 0.31 | 91 | 1011.3 |
| 20260509133319 | 67 | 325 | 6.0 | 18.0 | 0.24 | 1.60 | 0.24 | 91 | 1011.3 |
| 20260509132843 | 67 | 278 | 9.0 | 18.0 | 0.16 | 1.52 | 0.16 | 90 | 1011.3 |
| 20260509132325 | 68 | 303 | 7.0 | 26.0 | 0.08 | 1.44 | 0.08 | 89 | 1011.3 |
| 20260509131828 | 69 | 315 | 8.0 | 32.0 | 0.05 | 1.41 | 0.05 | 87 | 1010.1 |
| 20260509131310 | 71 | 344 | 14.0 | 32.0 | 0.04 | 1.40 | 0.04 | 82 | 1010.1 |
| 20260509130816 | 75 | 332 | 7.0 | 12.0 | 0.00 | 1.36 | 0.00 | 91 | 1010.1 |
| 20260509130326 | 76 | 307 | 3.0 | 5.0 | 0.00 | 1.36 | 0.00 | 91 | 1008.8 |
| 20260509125809 | 75 | 168 | 0.0 | 2.0 | 0.00 | 1.36 | 0.00 | 91 | 1008.8 |
| 20260509125311 | 75 | 168 | 0.0 | 2.0 | 0.00 | 1.36 | 0.00 | 91 | 1008.8 |
| 20260509124815 | 75 | 182 | 0.0 | 2.0 | 0.00 | 1.36 | 0.00 | 91 | 1008.6 |
| 20260509124319 | 75 | 173 | 0.0 | 1.0 | 0.00 | 1.36 | 0.00 | 91 | 1008.6 |
| 20260509123822 | 75 | 180 | 0.0 | 2.0 | 0.00 | 1.36 | 0.00 | 91 | 1008.6 |
| 20260509123346 | 75 | 192 | 1.0 | 2.0 | 0.00 | 1.36 | 0.00 | 91 | 1008.6 |
| 20260509122808 | 75 | 181 | 0.0 | 2.0 | 0.00 | 1.36 | 0.00 | 91 | 1008.6 |
| 20260509122334 | 75 | 181 | 0.0 | 2.0 | 0.00 | 1.36 | 0.00 | 91 | 1008.6 |
| 20260509121816 | 75 | 167 | 0.0 | 2.0 | 0.00 | 1.36 | 0.00 | 91 | 1008.5 |
| 20260509121322 | 75 | 167 | 0.0 | 2.0 | 0.00 | 1.36 | 0.00 | 91 | 1008.5 |
| 20260509120825 | 75 | 167 | 0.0 | 2.0 | 0.00 | 1.36 | 0.00 | 91 | 1008.5 |
| 20260509120347 | 75 | 167 | 0.0 | 2.0 | 0.00 | 1.36 | 0.00 | 91 | 1008.3 |